Wetterdaten: Dienstag, 23.12.2014
Datum Zeit Temp. A. Feuchte A. Luftdruck Regen Wind Richtung Richtung Sonnenschein ET UV Solar Taupunkt Windchill Windben Empfang
23.12.2014 00:00 8,3 C 48 % 1021,3 hPa 0,0 l/m 4,0 km/h (1 Bft) S-SW 210 0 min 0,000 mm 0,0 UV-I 0 W/m -2,1 C 8,3 C 7,9 km/h (2 Bft) 0,00 %
23.12.2014 01:00 7,1 C 53 % 1021,5 hPa 0,0 l/m 8,2 km/h (2 Bft) S-SW 210 0 min 0,000 mm 0,0 UV-I 0 W/m -1,8 C 5,7 C 11,9 km/h (2 Bft) 0,00 %
23.12.2014 02:00 6,1 C 60 % 1021,7 hPa 0,0 l/m 1,8 km/h (1 Bft) NW 320 0 min 0,000 mm 0,0 UV-I 0 W/m -1,1 C 6,1 C 4,0 km/h (1 Bft) 0,00 %
23.12.2014 03:00 6,3 C 57 % 1022,1 hPa 0,0 l/m 1,4 km/h (1 Bft) SW 230 0 min 0,000 mm 0,0 UV-I 0 W/m -1,6 C 6,3 C 4,0 km/h (1 Bft) 0,00 %
23.12.2014 04:00 5,4 C 56 % 1021,8 hPa 0,0 l/m 1,4 km/h (1 Bft) SW 230 0 min 0,000 mm 0,0 UV-I 0 W/m -2,7 C 5,4 C 4,0 km/h (1 Bft) 0,00 %
23.12.2014 05:00 5,5 C 52 % 1022,5 hPa 0,0 l/m 1,8 km/h (1 Bft) W-SW 240 0 min 0,000 mm 0,0 UV-I 0 W/m -3,6 C 5,5 C 4,0 km/h (1 Bft) 0,00 %
23.12.2014 06:00 5,2 C 52 % 1022,9 hPa 0,0 l/m 1,8 km/h (1 Bft) W 270 0 min 0,000 mm 0,0 UV-I 0 W/m -3,8 C 5,2 C 4,0 km/h (1 Bft) 0,00 %
23.12.2014 07:00 5,4 C 49 % 1023,3 hPa 0,0 l/m 1,4 km/h (1 Bft) NO 50 0 min 0,000 mm 0,0 UV-I 0 W/m -4,4 C 5,4 C 4,0 km/h (1 Bft) 0,00 %
23.12.2014 08:00 5,9 C 49 % 1023,5 hPa 0,0 l/m 1,8 km/h (1 Bft) W-SW 240 0 min 0,000 mm 0,0 UV-I 4 W/m -4,0 C 5,9 C 4,0 km/h (1 Bft) 0,00 %
23.12.2014 09:00 5,0 C 52 % 1024,1 hPa 0,0 l/m 0,0 km/h (0 Bft) S 180 0 min 0,000 mm 1,0 UV-I 45 W/m -4,0 C 5,0 C 0,0 km/h (0 Bft) 0,00 %
23.12.2014 10:00 7,4 C 46 % 1023,7 hPa 0,0 l/m 4,7 km/h (1 Bft) SW 230 60 min 0,000 mm 1,0 UV-I 145 W/m -3,4 C 7,4 C 11,9 km/h (2 Bft) 0,00 %
23.12.2014 11:00 7,9 C 45 % 1023,6 hPa 0,0 l/m 2,9 km/h (1 Bft) SW 230 60 min 0,000 mm 1,0 UV-I 167 W/m -3,3 C 7,9 C 4,0 km/h (1 Bft) 0,00 %
23.12.2014 12:00 9,1 C 40 % 1022,7 hPa 0,0 l/m 1,8 km/h (1 Bft) SW 230 60 min 0,000 mm 1,0 UV-I 190 W/m -3,8 C 9,1 C 4,0 km/h (1 Bft) 0,00 %
23.12.2014 13:00 9,2 C 42 % 1021,9 hPa 0,0 l/m 0,0 km/h (0 Bft) S 190 0 min 0,000 mm 1,0 UV-I 139 W/m -3,0 C 9,2 C 0,0 km/h (0 Bft) 0,00 %
23.12.2014 14:00 9,7 C 40 % 1021,1 hPa 0,0 l/m 3,2 km/h (1 Bft) S 190 0 min 0,000 mm 1,0 UV-I 128 W/m -3,2 C 9,7 C 7,9 km/h (2 Bft) 0,00 %
23.12.2014 15:00 9,9 C 40 % 1020,7 hPa 0,0 l/m 0,0 km/h (0 Bft) S-SW 200 60 min 0,000 mm 1,0 UV-I 82 W/m -3,1 C 9,9 C 0,0 km/h (0 Bft) 0,00 %
23.12.2014 16:00 8,4 C 44 % 1021,0 hPa 0,0 l/m 0,6 km/h (0 Bft) S-SW 200 60 min 0,000 mm 0,0 UV-I 12 W/m -3,1 C 8,4 C 4,0 km/h (1 Bft) 0,00 %
23.12.2014 17:00 8,6 C 37 % 1020,2 hPa 0,0 l/m 1,4 km/h (1 Bft) N-NW 340 0 min 0,000 mm 0,0 UV-I 0 W/m -5,2 C 8,6 C 4,0 km/h (1 Bft) 0,00 %
23.12.2014 18:00 8,8 C 35 % 1020,8 hPa 0,0 l/m 2,9 km/h (1 Bft) S-SW 200 0 min 0,000 mm 0,0 UV-I 0 W/m -5,8 C 8,8 C 7,9 km/h (2 Bft) 0,00 %
23.12.2014 19:00 8,6 C 34 % 1020,9 hPa 0,0 l/m 0,6 km/h (0 Bft) SW 230 0 min 0,000 mm 0,0 UV-I 0 W/m -6,4 C 8,6 C 4,0 km/h (1 Bft) 0,00 %
23.12.2014 20:00 5,8 C 45 % 1021,6 hPa 0,0 l/m 0,0 km/h (0 Bft) N-NW 340 0 min 0,000 mm 0,0 UV-I 0 W/m -5,2 C 5,8 C 0,0 km/h (0 Bft) 0,00 %
23.12.2014 21:00 5,5 C 44 % 1021,4 hPa 0,0 l/m 0,0 km/h (0 Bft) S-SW 200 0 min 0,000 mm 0,0 UV-I 0 W/m -5,8 C 5,5 C 0,0 km/h (0 Bft) 0,00 %
23.12.2014 22:00 4,1 C 51 % 1022,2 hPa 0,0 l/m 0,0 km/h (0 Bft) S-SW 200 0 min 0,000 mm 0,0 UV-I 0 W/m -5,1 C 4,1 C 0,0 km/h (0 Bft) 0,00 %
23.12.2014 23:00 3,8 C 50 % 1022,0 hPa 0,0 l/m 0,0 km/h (0 Bft) S 180 0 min 0,000 mm 0,0 UV-I 0 W/m -5,6 C 3,8 C 0,0 km/h (0 Bft) 0,00 %
_ Min-Zeit 23:00 19:00 17:00 - 09:00 - - - - - - 19:00 23:00 09:00 00:00
Minimum _ 3,8 C 34 % 1020,2 hPa - 0,0 km/h (0 Bft) - - - - - - -6,4 C 3,8 C 0,0 km/h (0 Bft) 0,00 %
_ Max-Zeit 15:00 02:00 09:00 00:00 01:00 - - 10:00 00:00 09:00 12:00 02:00 15:00 01:00 00:00
Maximum _ 9,9 C 60 % 1024,1 hPa 0,0 l/m 8,2 km/h
S-SW (2 Bft)
- - 60 min 0,000 mm 1,0 UV-I 190 W/m -1,1 C 9,9 C 11,9 km/h
S-SW (2 Bft)
0,00 %
Durchschnitt _ 6,9 C 47 % 1022,1 hPa #0,0 l/m 1,6 km/h (1 Bft) SW - #5:00 h #0,000 mm 1,0 UV-I 101 W/m -3,9 C 6,8 C 3,8 km/h (1 Bft) 0,00 %